Location: Beuerbach
(48.1459°N, 10.9174°E)
Time: 10:04:52
(UTC+00:00)

Cosmos 1703 Rocket - Pass Details

Date: 23 May 2024
Orbit: 602 x 629 km, 82.5° (Epoch: 15 June)

Event Time Altitude Azimuth Distance (km) Brightness Sun altitude
Exits shadow 00:58:58 34° 193° (SSW) 1,037 4.2 -17.2°
Maximum altitude 01:00:54 85° 280° (W) 634 3.5 -17.1°
Drops below altitude 10° 01:05:22 10° 8° (N) 2,014 7.3 -16.8°
Sets 01:07:37 0° 10° (N) 2,929 8.4 -16.6°
